TimeEDT,TemperatureF,Dew PointF,Humidity,Sea Level PressureIn,VisibilityMPH,Wind Direction,Wind SpeedMPH,Gust SpeedMPH,PrecipitationIn,Events,Conditions,WindDirDegrees,DateUTC
12:53 AM,82.9,73.9,74,30.09,10.0,East,10.4,-,N/A,,Partly Cloudy,90,2013-06-25 04:53:00
1:53 AM,82.9,73.9,74,30.09,10.0,East,10.4,-,N/A,,Scattered Clouds,100,2013-06-25 05:53:00
2:53 AM,78.1,72.0,81,30.06,10.0,Calm,Calm,-,0.00,,Partly Cloudy,0,2013-06-25 06:53:00
3:19 AM,80.6,75.2,84,30.06,10.0,East,6.9,-,N/A,Thunderstorm,Thunderstorm,90,2013-06-25 07:19:00
3:43 AM,82.4,75.2,79,30.06,10.0,East,9.2,-,N/A,,Clear,90,2013-06-25 07:43:00
3:53 AM,82.0,75.0,79,30.06,10.0,East,6.9,-,N/A,,Scattered Clouds,90,2013-06-25 07:53:00
4:09 AM,82.4,73.4,74,30.06,10.0,East,10.4,-,N/A,,Mostly Cloudy,80,2013-06-25 08:09:00
4:17 AM,82.4,71.6,70,30.06,10.0,East,10.4,-,N/A,,Mostly Cloudy,90,2013-06-25 08:17:00
4:53 AM,82.0,75.9,82,30.06,10.0,ENE,5.8,-,N/A,,Partly Cloudy,70,2013-06-25 08:53:00
6:53 AM,82.0,75.0,79,30.05,10.0,ENE,5.8,-,N/A,,Mostly Cloudy,70,2013-06-25 10:53:00
7:53 AM,82.9,73.9,74,30.06,10.0,East,10.4,-,N/A,,Mostly Cloudy,100,2013-06-25 11:53:00
8:53 AM,84.0,75.0,74,30.07,10.0,ESE,9.2,-,N/A,,Mostly Cloudy,110,2013-06-25 12:53:00
9:53 AM,86.0,73.9,67,30.07,10.0,ESE,13.8,-,N/A,,Mostly Cloudy,110,2013-06-25 13:53:00
10:53 AM,88.0,75.9,67,30.09,10.0,East,11.5,-,N/A,,Mostly Cloudy,90,2013-06-25 14:53:00
11:53 AM,88.0,75.0,65,30.09,10.0,East,11.5,20.7,N/A,,Mostly Cloudy,80,2013-06-25 15:53:00
12:53 PM,88.0,75.9,67,30.08,10.0,ESE,13.8,-,N/A,,Mostly Cloudy,110,2013-06-25 16:53:00
1:53 PM,89.1,77.0,67,30.08,10.0,East,10.4,-,N/A,,Mostly Cloudy,100,2013-06-25 17:53:00
2:53 PM,90.0,77.0,65,30.06,10.0,ESE,13.8,-,N/A,,Mostly Cloudy,120,2013-06-25 18:53:00
3:53 PM,87.8,75.2,66,30.04,10.0,ESE,11.5,-,N/A,,Mostly Cloudy,110,2013-06-25 19:53:00
4:53 PM,86.0,75.0,70,30.01,10.0,ESE,9.2,-,N/A,,Mostly Cloudy,120,2013-06-25 20:53:00
5:53 PM,87.1,73.9,65,30.01,10.0,ESE,11.5,-,N/A,,Mostly Cloudy,110,2013-06-25 21:53:00
6:53 PM,84.0,75.0,74,30.03,10.0,ENE,9.2,-,N/A,,Mostly Cloudy,70,2013-06-25 22:53:00
7:53 PM,84.0,75.9,76,30.03,10.0,East,8.1,-,N/A,,Mostly Cloudy,80,2013-06-25 23:53:00
8:53 PM,82.9,75.0,77,30.02,10.0,East,11.5,-,N/A,,Mostly Cloudy,90,2013-06-26 00:53:00
9:53 PM,82.0,75.9,82,30.02,7.0,ESE,9.2,-,N/A,,Mostly Cloudy,110,2013-06-26 01:53:00
10:53 PM,82.9,75.9,79,30.04,10.0,ESE,13.8,-,N/A,,Scattered Clouds,110,2013-06-26 02:53:00
11:15 PM,82.4,75.2,79,30.05,10.0,ESE,15.0,-,N/A,,Mostly Cloudy,120,2013-06-26 03:15:00
11:28 PM,82.4,75.2,79,30.05,4.0,ESE,15.0,-,N/A,,Haze,110,2013-06-26 03:28:00
11:53 PM,82.9,75.0,77,30.05,10.0,ESE,11.5,20.7,N/A,,Mostly Cloudy,120,2013-06-26 03:53:00